#timestamp,LO_Frequency,Hit,StdDev 
1630335615.8,286046998.5,N
1630335635.6,286046998.7,N
1630335655.5,286046998.6,N
1630335675.3,286046999.8,N
1630335695.1,286047000.6,N
1630335715.9,286046999.9,N
1630335735.7,286047000.0,N
1630335755.6,286047002.4,N
1630335775.4,286047000.0,N
1630335795.2,286047000.0,N
1630335815.1,286047000.2,N
1630335846.0,286047002.0,E
1630335855.0,286047002.3,N
1630335855.9,286047002.3,P
1630335875.8,286047001.1,P
1630335895.6,286047000.3,N
1630335915.4,286047000.0,N
1630335935.3,286047000.2,N
1630335955.1,286047000.6,N
1630335975.9,286047001.1,N
1630335995.7,286047000.9,N
1630336015.5,286047000.6,N
1630336035.4,286047001.0,N
1630336055.2,286047000.9,N
1630336075.0,286047001.0,N
1630336075.9,286047001.0,N
1630336095.8,286047000.9,N
1630336115.6,286046998.3,N
1630336135.5,286046998.8,N
1630336155.3,286046999.4,N
1630336175.1,286046998.1,N
1630336195.9,286046998.5,N
1630336215.7,286046998.8,N
1630336235.7,286047000.9,N
1630336255.6,286047002.7,N
1630336275.4,286047000.0,N
1630336295.2,286047002.7,N
1630336315.1,286046999.9,N
1630336316.0,286046999.9,N
1630336335.8,286047002.8,N
1630336355.7,286047002.3,N
1630336375.5,286047002.1,N
1630336395.3,286047002.2,N
1630336415.2,286046999.7,N
1630336435.0,286047001.3,N
1630336435.9,286047001.3,N
1630336455.8,286047002.4,N
1630336475.6,286047001.5,N
1630336495.8,286047001.4,N
1630336515.6,286047001.7,N
1630336535.5,286047001.9,N
1630336555.3,286047004.3,Y
1630336575.1,286046999.8,P
1630336595.9,286047000.3,N
1630336615.7,286047000.9,N
1630336635.6,286047002.4,Y
1630336655.4,286047000.6,P
1630336675.2,286047001.1,P
1630336695.1,286046998.6,P
1630336696.0,286046998.6,N
1630336715.8,286046998.1,N
1630336735.7,286046998.6,N
1630336755.5,286046999.0,N
1630336775.3,286046998.5,N
1630336795.2,286046998.3,N
1630336815.0,286046998.3,N
1630336815.9,286046998.3,N
1630336835.8,286046998.2,N
1630336855.6,286047001.1,N
1630336875.4,286047000.5,N
1630336895.3,286047000.6,N
1630336915.1,286047000.3,N
1630336935.8,286047002.8,N
1630336955.7,286047000.3,N
1630336975.5,286047000.0,N
1630336995.4,286046998.7,N
1630337015.2,286046998.7,N
1630337035.0,286046997.0,N
1630337035.9,286046997.0,N
1630337055.8,286046997.4,N
1630337075.6,286046999.5,N
1630337095.4,286046999.2,N
1630337115.3,286046998.8,N
1630337135.1,286046998.5,N
1630337155.9,286047001.0,N
1630337175.7,286046999.4,N
1630337195.5,286046998.6,N
1630337215.4,286047000.7,N
1630337235.2,286047000.4,N
1630337255.1,286047002.8,N
1630337256.0,286047002.8,N
1630337275.8,286047002.3,N
1630337295.6,286047000.1,N
1630337315.5,286047000.1,N
1630337335.3,286046998.8,N
1630337355.2,286046996.7,N
1630337375.9,286046997.4,N
1630337395.7,286046998.4,N
1630337415.6,286046999.0,N
1630337435.4,286046998.4,N
1630337455.2,286046998.4,N
1630337475.1,286046998.9,N
1630337476.0,286046998.9,N
1630337495.8,286046998.3,N
1630337515.7,286046999.7,N
1630337535.5,286047000.3,N
1630337555.3,286047000.5,N
1630337575.2,286047000.0,N
1630337595.9,286046999.7,N
1630337615.7,286047000.4,N
1630337635.6,286047000.0,N
1630337655.4,286047001.1,N
1630337675.3,286047000.7,N
1630337695.1,286047001.2,N
1630337696.0,286047001.2,N
1630337715.8,286046999.0,N
1630337735.7,286046997.0,N
1630337755.5,286046996.6,N
1630337775.3,286046998.5,N
1630337795.2,286047000.7,N
1630337815.0,286047000.9,N
1630337815.9,286047000.9,N
1630337835.8,286046998.2,N
1630337855.6,286046998.5,N
1630337875.4,286047000.9,N
1630337895.3,286046999.9,N
1630337915.1,286046998.8,N
1630337935.8,286046999.1,N
1630337955.7,286046999.4,N
1630337975.5,286046996.8,N
1630337995.4,286046999.0,N
1630338015.2,286046998.1,N
1630338035.0,286046998.1,N
1630338035.9,286046998.1,N
1630338055.8,286046998.2,N
1630338075.6,286046998.6,N
1630338095.4,286047001.0,N
1630338115.3,286046998.1,N
1630338135.1,286046998.8,N
1630338155.9,286046997.0,N
1630338175.7,286046999.4,N
1630338195.5,286046996.9,N
1630338215.4,286046996.7,N
1630338235.2,286046996.9,N
1630338255.0,286046998.9,N
1630338255.9,286046998.9,N
1630338275.8,286046998.4,N
1630338295.6,286046998.9,N
1630338315.5,286046998.1,N
1630338335.3,286046999.3,N
1630338355.1,286046999.2,N
1630338375.9,286046999.2,N
1630338395.7,286046998.5,N
1630338415.6,286047001.0,N
1630338435.4,286047001.1,N
1630338455.2,286046998.8,N
1630338475.1,286046997.0,N
1630338476.0,286046997.0,N
1630338495.8,286046998.3,N
1630338515.6,286046998.3,N
1630338535.5,286046998.1,N
1630338555.3,286046999.3,N
1630338575.2,286046997.3,N
1630338595.9,286046999.2,N
1630338615.7,286046998.7,N
1630338635.6,286047000.9,N
1630338655.4,286047001.0,N
1630338675.2,286047001.1,N
1630338695.1,286047001.2,N
1630338696.0,286047001.2,N
1630338715.8,286046998.7,N
1630338735.7,286046996.8,N
1630338755.5,286046998.0,N
1630338775.3,286046995.4,Y
1630338795.2,286046996.0,P
1630338815.0,286046995.5,P
1630338815.9,286046995.5,N
1630338835.8,286046995.0,Y
1630338855.6,286046999.4,P
1630338875.4,286046996.8,N
1630338895.3,286046995.3,P
1630338915.1,286046999.4,N
1630338935.8,286047000.5,N
1630338955.7,286046998.5,N
1630338975.5,286046996.5,N
1630338995.4,286046997.0,N
1630339015.2,286046996.5,N
1630339035.0,286046998.3,N
1630339035.9,286046998.3,N
1630339055.8,286047000.1,N
1630339075.6,286047002.5,N
1630339095.4,286047001.7,N
1630339115.3,286047004.0,N
1630339135.1,286047003.5,N
1630339155.9,286047004.4,N
1630339175.7,286047004.2,N
1630339195.5,286047002.2,N
